Location: Newark
(48.3453°N, 0.5589°E)
Time: 13:09:38
(UTC+00:00)

A-11 Canister half - Pass Details

Date: 07 December 2019
Orbit: 1516 x 1683 km, 47.2° (Epoch: 19 January)

Event Time Altitude Azimuth Distance (km) Brightness Sun altitude
Rises 15:16:46 0° 262° (W) 4,812 12.6 5.2°
Reaches altitude 10° 15:19:50 10° 262° (W) 3,849 12.2 4.9°
Maximum altitude 15:29:45 85° 176° (S) 1,670 9.4 3.6°
Drops below altitude 10° 15:39:56 10° 90° (E) 3,945 10.7 2.3°
Sets 15:43:06 0° 90° (E) 4,937 11.2 1.9°
